Location: Unspecified
(0.0000°N, 0.0000°E)
Time: 19:36:23
(UTC+00:00)

Vanguard 1 Rocket - Pass Details

Date: 21 April 2026
Orbit: 655 x 4212 km, 34.3° (Epoch: 17 May)

Event Time Altitude Azimuth Distance (km) Brightness Sun altitude
Rises 04:51:06 0° 308° (NW) 6,540 11.4 -16.6°
Reaches altitude 10° 04:56:15 10° 310° (NW) 4,942 10.8 -15.3°
Maximum altitude 05:08:30 79° 35° (NE) 1,378 8.3 -12.3°
Drops below altitude 10° 05:14:48 10° 122° (ESE) 2,664 10.5 -10.8°
Sets 05:16:48 0° 123° (ESE) 3,403 11.1 -10.3°
